Weather History for KAGS - February, 2014

Change the Weather History Date:

Monday, February 3, 2014

  Actual Average Record
Temperature  
Mean Temperature 59 °F 47 °F  
Max Temperature 69 °F 60 °F 84 °F (1989)
Min Temperature 48 °F 34 °F 9 °F (1917)
Degree Days  
Heating Degree Days 6 18  
Month to date heating degree days 43 54  
Since 1 July heating degree days 1744 1639  
Cooling Degree Days 0 0  
Month to date cooling degree days 0 0  
Year to date cooling degree days 0 1  
Growing Degree Days 8 (Base 50)    
Moisture  
Dew Point 58 °F    
Average Humidity 85    
Maximum Humidity 100    
Minimum Humidity 70    
Precipitation  
Precipitation T in 0.13 in 2.34 in (1982)
Month to date precipitation 0.02 0.40  
Year to date precipitation 2.50 4.31  
Sea Level Pressure  
Sea Level Pressure 30.02 in    
Wind  
Wind Speed 8 mph (SW)    
Max Wind Speed 17 mph    
Max Gust Speed 26 mph    
Visibility 8 miles    
Events Fog , Rain    
T = Trace of Precipitation, MM = Missing Value Source: NWS Daily Summary

Daily Weather History Graph

Daily Weather History Graph

Search for Another Location

Airport or City:

Trip Planner

Search our weather history database for the weather conditions in past years. The results will help you decide how hot, cold, wet, or windy it might be!

Date:

Astronomy

Feb. 03, 2014 Rise Set
Actual Time 7:22 AM EST 6:01 PM EST
Civil Twilight 6:56 AM EST 6:27 PM EST
Nautical Twilight 6:26 AM EST 6:57 PM EST
Astronomical Twilight 5:57 AM EST 7:26 PM EST
Moon 9:39 AM EST (2/3) 10:33 PM EST (2/3)
Length of Visible Light 11h 31m
Length of Day
10h 39m
Waxing Crescent, 19% of the Moon is Illuminated
Feb 3
Waxing Crescent
Feb 6
First Quarter
Feb 14
Full
Feb 22
Last Quarter
Mar 1
New

Hourly Weather History & Observations

Time (EST) Temp. Dew Point Humidity Pressure Visibility Wind Dir Wind Speed Gust Speed Precip Events Conditions
12:53 AM 59.0 °F 55.9 °F 90% 29.98 in 10.0 mi South 6.9 mph - N/A   Mostly Cloudy
1:53 AM 62.1 °F 55.9 °F 80% 29.97 in 10.0 mi South 9.2 mph - N/A   Overcast
2:53 AM 63.0 °F 59.0 °F 87% 29.97 in 10.0 mi SW 6.9 mph - N/A   Overcast
3:04 AM 64.0 °F 59.0 °F 84% 29.97 in 10.0 mi SSW 6.9 mph - N/A   Overcast
3:53 AM 63.0 °F 60.1 °F 90% 29.95 in 10.0 mi South 10.4 mph - N/A   Overcast
4:53 AM 64.9 °F 62.1 °F 90% 29.96 in 10.0 mi SSW 13.8 mph 21.9 mph N/A   Overcast
5:53 AM 64.9 °F 62.1 °F 90% 29.95 in 10.0 mi South 17.3 mph 23.0 mph N/A   Overcast
6:46 AM 64.9 °F 62.1 °F 90% 29.96 in 10.0 mi South 12.7 mph 21.9 mph N/A   Scattered Clouds
6:53 AM 64.9 °F 61.0 °F 87% 29.96 in 10.0 mi South 11.5 mph 21.9 mph N/A   Mostly Cloudy
7:01 AM 64.9 °F 61.0 °F 87% 29.96 in 10.0 mi South 11.5 mph - N/A   Mostly Cloudy
7:53 AM 66.0 °F 62.1 °F 87% 29.98 in 10.0 mi SSW 10.4 mph - N/A   Overcast
8:06 AM 66.0 °F 62.1 °F 87% 29.98 in 10.0 mi South 12.7 mph 19.6 mph N/A   Overcast
8:53 AM 66.0 °F 61.0 °F 84% 30.01 in 10.0 mi WSW 8.1 mph - N/A   Overcast
9:14 AM 66.0 °F 61.0 °F 84% 30.03 in 10.0 mi WSW 8.1 mph - N/A   Overcast
9:53 AM 68.0 °F 62.1 °F 81% 30.03 in 10.0 mi SW 11.5 mph - N/A   Overcast
10:53 AM 64.9 °F 62.1 °F 90% 30.05 in 6.0 mi WSW 11.5 mph - 0.00 in Rain Light Rain
11:40 AM 66.0 °F 62.1 °F 87% 30.02 in 10.0 mi WSW 15.0 mph - 0.00 in   Overcast
11:51 AM 66.2 °F 62.6 °F 88% 30.02 in 10.0 mi SW 9.2 mph - 0.00 in   Overcast
11:53 AM 66.0 °F 62.1 °F 87% 30.02 in 10.0 mi SW 8.1 mph - 0.00 in   Overcast
12:37 PM 66.9 °F 61.0 °F 81% 30.02 in 10.0 mi WSW 9.2 mph - N/A   Overcast
12:53 PM 66.9 °F 61.0 °F 81% 30.01 in 10.0 mi West 10.4 mph - N/A   Overcast
1:25 PM 66.9 °F 60.1 °F 79% 30.00 in 10.0 mi West 10.4 mph - N/A   Overcast
1:53 PM 64.9 °F 60.1 °F 84% 30.01 in 10.0 mi West 11.5 mph - N/A   Overcast
2:53 PM 68.0 °F 59.0 °F 73% 30.01 in 10.0 mi West 12.7 mph - N/A   Overcast
3:14 PM 69.1 °F 59.0 °F 70% 30.00 in 10.0 mi West 9.2 mph - N/A   Overcast
3:53 PM 69.1 °F 59.0 °F 70% 30.01 in 10.0 mi WSW 3.5 mph - N/A   Overcast
4:53 PM 69.1 °F 59.0 °F 70% 30.02 in 10.0 mi SW 5.8 mph - N/A   Mostly Cloudy
5:53 PM 64.9 °F 59.0 °F 81% 30.04 in 10.0 mi SSW 6.9 mph - N/A   Mostly Cloudy
6:53 PM 61.0 °F 57.9 °F 90% 30.06 in 10.0 mi SW 3.5 mph - N/A   Clear
7:53 PM 55.9 °F 55.9 °F 100% 30.08 in 10.0 mi Calm Calm - N/A   Clear
8:53 PM 52.0 °F 52.0 °F 100% 30.09 in 10.0 mi Calm Calm - N/A   Clear
9:53 PM 52.0 °F 51.1 °F 97% 30.11 in 0.5 mi Calm Calm - N/A Fog Patches of Fog
10:16 PM 50.0 °F 50.0 °F 100% 30.11 in 2.0 mi North 3.5 mph - N/A Fog Patches of Fog
10:53 PM 48.0 °F 48.0 °F 100% 30.12 in 2.0 mi Calm Calm - N/A Fog Patches of Fog
11:00 PM 48.9 °F 48.9 °F 100% 30.12 in 0.2 mi Calm Calm - N/A Fog Patches of Fog
11:20 PM 51.1 °F 51.1 °F 100% 30.13 in 0.2 mi Calm Calm - N/A Fog Patches of Fog
11:39 PM 51.1 °F 51.1 °F 100% 30.12 in 0.2 mi Calm Calm - N/A Fog Patches of Fog
11:53 PM 50.0 °F 50.0 °F 100% 30.12 in 0.2 mi Calm Calm - N/A Fog Patches of Fog